Wind_Speed
12 11 7 6 8 12 5 2 1 4 3 8 14 3 16 17 30 31 33 34 26 36 26 36 36 36 34 25 21 17 22 17
13 8 8 6 6 2 1 6 4 5 3 5 3 5 6 17 29 31 32 38 35 37 23 36 41 32 31 27 22 18 22 22
1 4 5 3 4 4 1 3 5 5 5 6 7 7 6 10 25 31 37 40 38 39 23 29 35 33 27 30 23 20 21 21
8 7 9 7 7 6 4 8 3 5 4 9 3 11 6 8 18 30 35 39 40 40 32 37 32 31 26 30 22 24 21 22
9 8 9 1 6 5 4 2 5 1 4 5 9 13 30 27 7 31 42 37 34 36 39 39 30 30 27 30 27 23 24 26
5 7 8 9 13 10 1 3 6 4 4 1 4 4 7 14 16 36 41 38 38 40 38 36 39 33 31 30 29 29 29 27
6 5 10 10 11 14 8 8 2 3 7 7 2 5 18 41 24 28 32 36 35 37 35 37 34 37 44 28 38 22 30 30
5 7 6 6 11 12 10 15 9 16 11 5 17 12 24 31 25 8 20 27 27 26 28 31 30 32 31 18 35 29 31 33
5 6 4 3 7 7 10 19 10 10 5 11 9 11 3 17 7 30 18 13 18 17 18 22 24 27 34 28 34 30 34 33
3 5 3 4 10 11 16 18 17 14 13 12 8 11 17 21 22 10 15 14 13 15 14 15 14 19 27 28 27 30 30 31
4 4 4 9 8 9 7 10 13 12 12 13 14 19 15 13 14 12 9 10 9 8 8 20 22 22 23 28 29 26 24 23
6 1 2 8 14 17 13 4 18 17 16 14 3 5 3 7 3 1 4 6 6 5 3 4 9 20 24 22 21 17 15 14
4 2 3 11 21 19 2 1 6 18 21 23 10 9 6 3 7 6 4 3 2 4 5 2 5 7 8 17 20 19 17 16
1 3 4 15 7 4 6 8 9 16 24 30 21 10 5 5 7 7 5 5 4 3 4 5 5 5 8 8 13 17 19 19
3 3 4 10 9 3 11 17 13 14 13 16 12 8 2 3 6 6 7 11 10 11 10 9 7 6 9 11 10 12 15 16
3 4 13 21 7 9 6 10 14 13 13 11 12 11 10 12 14 15 15 16 15 15 16 17 14 13 14 12 12 11 14 15
1 6 8 9 11 15 12 12 13 11 11 11 11 11 16 21 23 21 21 19 18 16 15 13 12 13 13 12 11 11 13 12
2 21 13 14 8 15 14 10 7 8 11 12 13 18 18 20 20 19 17 16 16 15 15 16 13 11 10 9 10 11 9 8
8 19 22 14 8 10 14 15 10 9 11 16 18 19 19 19 18 18 18 17 16 14 12 13 12 11 9 9 9 8 7 8
Wind_Direction
196 230 172 199 194 230 111 232 102 164 216 303 340 138 187 193 196 194 192 199 199 205 210 198 192 198 199 203 199 207 208 203
204 188 272 163 226 281 57 141 212 178 181 197 259 326 264 186 195 192 189 195 201 196 196 199 194 198 198 206 201 201 209 207
291 125 214 268 285 286 176 164 179 153 233 214 198 192 228 309 216 200 203 196 198 193 197 182 192 192 198 203 199 206 203 203
292 293 200 231 223 222 141 288 289 167 240 205 266 134 186 231 271 219 205 206 201 204 209 196 198 196 204 206 221 203 202 202
325 329 354 257 263 258 239 6 285 327 258 171 219 156 182 206 204 211 213 195 191 202 195 194 198 187 194 206 208 201 202 205
208 212 258 318 332 329 234 183 256 275 112 142 296 44 299 210 226 197 192 188 195 192 192 196 188 203 207 203 198 207 206 200
217 299 242 294 303 318 334 304 266 203 145 112 80 351 291 245 255 182 179 187 172 182 178 186 193 196 181 252 211 205 210 207
291 271 252 316 342 301 314 342 295 76 64 13 13 27 358 42 26 87 142 162 173 180 181 186 191 188 208 215 194 209 221 208
293 1 61 63 11 340 6 45 49 55 21 56 70 58 358 58 49 353 80 140 168 168 177 193 196 202 203 199 202 215 227 217
271 49 289 104 32 20 67 59 60 69 60 66 83 73 40 52 73 87 28 61 159 182 182 184 209 209 198 193 200 210 209 207
182 181 221 54 27 21 360 46 48 55 59 99 102 92 48 31 53 48 28 26 40 122 194 197 196 193 197 202 208 214 219 222
331 110 261 37 9 342 310 58 15 63 59 27 328 72 46 45 54 10 8 335 320 327 4 89 188 197 196 197 205 205 203 202
7 353 18 359 337 327 18 106 41 54 88 80 68 77 117 84 77 67 69 63 1 313 299 297 118 145 194 200 189 191 194 197
14 152 277 359 357 67 249 329 86 78 107 109 116 102 66 56 51 48 63 81 85 103 100 103 123 174 178 184 165 175 182 189
154 185 105 23 342 265 345 97 97 90 99 105 95 100 164 112 79 83 100 103 109 105 101 101 116 119 141 136 171 199 210 211
107 142 133 93 97 264 150 82 84 90 89 87 107 132 139 124 116 110 105 99 100 102 99 97 95 109 119 127 119 129 140 146
91 79 168 183 138 112 116 106 90 86 96 95 105 128 132 124 122 113 105 103 103 101 98 100 103 100 91 99 116 125 116 123
143 171 141 137 132 144 134 128 114 121 110 103 120 135 136 129 123 121 119 117 111 104 102 95 93 105 118 122 113 107 113 122
134 140 138 130 129 156 144 145 143 142 141 135 140 139 139 135 134 135 132 125 118 107 99 97 97 95 97 108 123 140 146 157
Height
1465 1466 1473 1486 1506 1483 1519 1515 1526 1529 1528 1507 1488 1488 1499 1505 1509 1515 1519 1522 1529 1536 1543 1551 1555 1559 1563 1568 1572 1575 1578 1582
1462 1464 1465 1475 1473 1499 1504 1534 1538 1521 1514 1516 1502 1501 1502 1501 1504 1509 1516 1522 1529 1535 1540 1543 1555 1556 1561 1567 1569 1572 1576 1581
1462 1471 1479 1481 1486 1483 1488 1499 1522 1531 1522 1496 1488 1493 1501 1507 1501 1503 1508 1515 1523 1531 1538 1545 1552 1555 1560 1565 1568 1573 1574 1578
1485 1469 1464 1470 1479 1482 1510 1508 1493 1499 1505 1479 1478 1483 1492 1495 1500 1503 1504 1510 1519 1525 1532 1542 1548 1551 1556 1563 1564 1569 1571 1576
1497 1480 1472 1474 1474 1474 1478 1485 1502 1510 1504 1477 1480 1488 1479 1477 1490 1495 1501 1508 1515 1522 1530 1535 1541 1545 1553 1559 1561 1566 1569 1571
1533 1516 1496 1495 1482 1476 1478 1503 1500 1495 1491 1489 1489 1489 1481 1473 1477 1484 1495 1503 1510 1517 1524 1530 1534 1541 1549 1554 1557 1563 1568 1568
1496 1488 1489 1490 1487 1481 1485 1484 1492 1483 1481 1495 1492 1499 1493 1482 1481 1483 1492 1499 1506 1512 1520 1528 1531 1537 1545 1548 1550 1555 1563 1565
1499 1488 1486 1490 1487 1482 1481 1481 1473 1488 1496 1494 1487 1490 1499 1492 1488 1492 1495 1502 1509 1512 1518 1523 1529 1535 1540 1538 1542 1550 1555 1561
1511 1491 1489 1507 1498 1487 1488 1492 1494 1507 1506 1500 1501 1500 1498 1507 1499 1491 1499 1509 1514 1513 1518 1523 1526 1529 1534 1537 1543 1545 1550 1556
1512 1501 1525 1503 1493 1493 1498 1502 1502 1506 1504 1507 1505 1500 1500 1504 1501 1503 1504 1508 1517 1516 1519 1523 1526 1528 1534 1538 1544 1548 1551 1554
1517 1516 1501 1501 1502 1506 1505 1515 1509 1510 1514 1513 1509 1504 1507 1505 1504 1508 1512 1517 1519 1518 1518 1518 1521 1527 1533 1537 1540 1546 1547 1549
1514 1512 1518 1517 1508 1507 1501 1527 1517 1515 1517 1516 1515 1520 1517 1515 1515 1514 1516 1519 1521 1522 1521 1522 1520 1523 1529 1533 1536 1540 1542 1545
1528 1534 1519 1517 1512 1505 1517 1535 1521 1518 1516 1517 1521 1526 1527 1525 1522 1522 1521 1518 1520 1523 1522 1524 1527 1526 1530 1532 1531 1532 1540 1543
1525 1531 1539 1516 1514 1520 1523 1519 1520 1519 1519 1518 1520 1524 1527 1527 1522 1519 1517 1515 1518 1522 1524 1525 1527 1528 1529 1534 1534 1536 1537 1541
1521 1524 1523 1529 1525 1521 1522 1518 1520 1519 1522 1520 1522 1521 1526 1525 1522 1522 1524 1521 1524 1526 1528 1528 1530 1531 1530 1531 1533 1538 1537 1540
1520 1520 1524 1523 1522 1523 1523 1521 1522 1522 1522 1521 1521 1527 1527 1521 1523 1526 1527 1524 1528 1530 1532 1533 1532 1534 1534 1537 1535 1539 1540 1542
1518 1518 1522 1521 1519 1518 1522 1524 1523 1524 1524 1524 1525 1528 1528 1527 1524 1528 1528 1531 1533 1533 1534 1536 1537 1537 1539 1539 1541 1544 1544 1545
1510 1511 1514 1517 1519 1522 1524 1523 1524 1525 1528 1528 1530 1531 1533 1533 1532 1533 1535 1537 1538 1539 1540 1541 1542 1543 1544 1545 1543 1544 1546 1547
1505 1509 1512 1515 1519 1520 1521 1523 1524 1526 1529 1531 1535 1535 1536 1536 1538 1541 1541 1541 1541 1541 1543 1543 1543 1543 1544 1544 1546 1546 1548 1552